Lat: 34.70N, Lon: 79.9W  ICAO: KRCZ
Web Search
Cheraw Weather Warning NWS WEATHER ALERT FOR THE CHERAW, SC AREA - Issued: 543 AM EDT Mon Oct 25 2021 Cheraw Weather Warning  

Did you know? You can add this page to Bookmarks by pressing the Ctrl key & d key at the same time. Mac users press command & d.

Feedback

Cheraw Hourly Weather

36 Hour Weather Scroll   °F Click to change Cheraw hourly weather to Imperial units.Click to change Cheraw hourly weather to Metric units. °C
Currently, Mostly Cloudy, temperature is 73°F23°C, dew point 65°F18°C, humidity 78%. Wind direction is S at 8 mph13 km/h with visibility of 10.00 mi16 km. Barometric pressure is 29 in982 mb.

Oct 25
9:00 PM

Oct 25
10:00 PM

Oct 25
11:00 PM

Oct 26
MIDNIGHT

Oct 26
1:00 AM

Oct 26
2:00 AM

Oct 26
3:00 AM

Oct 26
4:00 AM

Oct 26
5:00 AM

Oct 26
6:00 AM

Oct 26
7:00 AM

Oct 26
8:00 AM

Oct 26
9:00 AM

Oct 26
10:00 AM

Oct 26
11:00 AM

Oct 26
NOON

Oct 26
1:00 PM

Oct 26
2:00 PM

Oct 26
3:00 PM

Oct 26
4:00 PM

Oct 26
5:00 PM

Oct 26
6:00 PM

Oct 26
7:00 PM

Oct 26
8:00 PM

Oct 26
9:00 PM

Oct 26
10:00 PM

Oct 26
11:00 PM

Oct 27
MIDNIGHT

Oct 27
1:00 AM

Oct 27
2:00 AM

Oct 27
3:00 AM

Oct 27
4:00 AM

Oct 27
8:00 AM

Oct 27
9:00 AM

Oct 27
10:00 AM

Oct 27
2:00 PM
Clear Clear Clear Clear Clear Clear Clear Clear Clear Clear Clear Clear Clear Clear Clear Clear Clear Clear Clear Clear Clear Clear Clear Clear Clear Clear Clear Clear Clear Clear Clear Cloudy Cloudy Cloudy Cloudy Cloudy
Clear Clear Clear Clear Clear Clear Clear Clear Clear Clear Clear Clear Clear Clear Clear Clear Clear Clear Clear Clear Clear Clear Clear Clear Clear Clear Clear Clear Clear Clear Clear Cloudy Cloudy Cloudy Cloudy Cloudy
58°F14°C 55°F13°C 53°F12°C 52°F11°C 51°F11°C 50°F10°C 49°F9°C 48°F9°C 47°F8°C 47°F8°C 46°F8°C 46°F8°C 50°F10°C 55°F13°C 59°F15°C 61°F16°C 64°F18°C 66°F19°C 67°F19°C 69°F21°C 70°F21°C 67°F19°C 65°F18°C 62°F17°C 61°F16°C 59°F15°C 58°F14°C 57°F14°C 57°F14°C 56°F13°C 55°F13°C 54°F12°C 53°F12°C 57°F14°C 61°F16°C 65°F18°C
- - - - - - - - - - - - - - - - - - - - - - - - - - - - - - - - - Rain Rain Rain
1% 1% 1% 1% 1% 1% 1% 1% 1% 1% 1% 1% 0% 0% 0% 0% 0% 0% 0% 0% 0% 0% 0% 0% 2% 2% 2% 2% 2% 2% 4% 4% 4% 25% 25% 25%
43°F6°C 43°F6°C 42°F6°C 42°F6°C 43°F6°C 43°F6°C 43°F6°C 42°F6°C 42°F6°C 42°F6°C 42°F6°C 42°F6°C 43°F6°C 45°F7°C 46°F8°C 47°F8°C 47°F8°C 48°F9°C 48°F9°C 49°F9°C 49°F9°C 50°F10°C 52°F11°C 53°F12°C 54°F12°C 54°F12°C 55°F13°C 55°F13°C 55°F13°C 55°F13°C 54°F12°C 53°F12°C 52°F11°C 53°F12°C 55°F13°C 56°F13°C
57% 64% 66% 69% 74% 77% 80% 80% 83% 83% 86% 86% 77% 69% 62% 60% 54% 52% 50% 49% 47% 54% 63% 72% 78% 83% 90% 93% 93% 96% 96% 96% 96% 86% 81% 73%
NW NW NW NW NW NW NW NW NW NW NW NW NW NNW NNW NW NW NW NW NW NW SW ESE N N N N N N N NE E SE SE SE SE
8 mph 6 mph 6 mph 6 mph 6 mph 6 mph 6 mph 4 mph 4 mph 4 mph 3 mph 3 mph 3 mph 5 mph 5 mph 5 mph 4 mph 4 mph 4 mph 3 mph 3 mph 3 mph 0 mph 0 mph 0 mph 0 mph 0 mph 0 mph 0 mph 0 mph 0 mph 2 mph 2 mph 2 mph 5 mph 5 mph
10 mi16 km 10 mi16 km 10 mi16 km 10 mi16 km 10 mi16 km 10 mi16 km 10 mi16 km 10 mi16 km 10 mi16 km 10 mi16 km 10 mi16 km 10 mi16 km 10 mi16 km 10 mi16 km 10 mi16 km 10 mi16 km 10 mi16 km 10 mi16 km 10 mi16 km 10 mi16 km 10 mi16 km 10 mi16 km 10 mi16 km 10 mi16 km 10 mi16 km 10 mi16 km 10 mi16 km 10 mi16 km 10 mi16 km 10 mi16 km 10 mi16 km 10 mi16 km 10 mi16 km 10 mi16 km 10 mi16 km 10 mi16 km
Hour (EDT)
Weather
Clouds
Temperature
Precip. Type
POP
Dewpoint
Humidity
Wind Direction
Wind Speed
Visibility
POP = Probability of Precipitation. ** Indicates missing data/values from model statistics.

24 Hour Forecast

Tonight - Partly cloudy. A slight chance of showers this evening. Lows in the mid 50s. Southwest winds 5 to 10 mph, becoming west after midnight. Chance of rain 20%.
Tuesday - Sunny. Less humid with highs in the lower 70s. Northwest winds 10 to 15 mph.

48 Hour Forecast API Feed


Mon, Oct 25
9:00 pm

Mon, Oct 25
10:00 pm

Mon, Oct 25
11:00 pm

Tue, Oct 26
Midnight

Tue, Oct 26
1:00 am

Tue, Oct 26
2:00 am

Tue, Oct 26
3:00 am

Tue, Oct 26
4:00 am

Tue, Oct 26
5:00 am

Tue, Oct 26
6:00 am

Tue, Oct 26
7:00 am

Tue, Oct 26
8:00 am

Tue, Oct 26
9:00 am

Tue, Oct 26
10:00 am

Tue, Oct 26
11:00 am

Tue, Oct 26
Noon

Tue, Oct 26
1:00 pm

Tue, Oct 26
2:00 pm

Tue, Oct 26
3:00 pm

Tue, Oct 26
4:00 pm

Tue, Oct 26
5:00 pm

Tue, Oct 26
6:00 pm

Tue, Oct 26
7:00 pm

Tue, Oct 26
8:00 pm

Tue, Oct 26
9:00 pm

Tue, Oct 26
10:00 pm

Tue, Oct 26
11:00 pm

Wed, Oct 27
Midnight

Wed, Oct 27
1:00 am

Wed, Oct 27
2:00 am

Wed, Oct 27
3:00 am

Wed, Oct 27
4:00 am

Wed, Oct 27
5:00 am

Wed, Oct 27
6:00 am

Wed, Oct 27
7:00 am

Wed, Oct 27
8:00 am

Wed, Oct 27
9:00 am

Wed, Oct 27
10:00 am

Wed, Oct 27
11:00 am

Wed, Oct 27
Noon

Wed, Oct 27
1:00 pm

Wed, Oct 27
2:00 pm

Wed, Oct 27
3:00 pm

Wed, Oct 27
4:00 pm

Wed, Oct 27
5:00 pm

Wed, Oct 27
6:00 pm

Wed, Oct 27
7:00 pm

Wed, Oct 27
8:00 pm
Light Rain ShowerPartly CloudyLight Rain ShowerClearPatchy Rain PossiblePartly CloudyPartly CloudyPartly CloudyClearClearClearSunnySunnySunnySunnySunnySunnySunnySunnySunnySunnySunnyClearClearClearClearClearClearClearClearClearClearClearClearClearSunnySunnySunnySunnySunnySunnySunnySunnySunnySunnySunnyClearClear
Light rain showers Partly cloudy Light rain showers Clear Patchy rain possible Partly cloudy Partly cloudy Partly cloudy Clear Clear Clear Sunny Sunny Sunny Sunny Sunny Sunny Sunny Sunny Sunny Sunny Sunny Clear Clear Clear Clear Clear Clear Clear Clear Clear Clear Clear Clear Clear Sunny Sunny Sunny Sunny Sunny Sunny Sunny Sunny Sunny Sunny Sunny Clear Clear
68°F
20°C
69°F
20°C
68°F
20°C
67°F
19°C
66°F
19°C
65°F
18°C
64°F
18°C
61°F
16°C
57°F
14°C
55°F
13°C
54°F
12°C
54°F
12°C
57°F
14°C
61°F
16°C
66°F
19°C
71°F
22°C
71°F
22°C
75°F
24°C
76°F
24°C
75°F
24°C
73°F
23°C
68°F
20°C
64°F
18°C
57°F
14°C
55°F
13°C
54°F
12°C
52°F
11°C
51°F
11°C
50°F
10°C
50°F
10°C
49°F
10°C
49°F
10°C
49°F
9°C
48°F
9°C
48°F
9°C
48°F
9°C
51°F
10°C
55°F
13°C
61°F
16°C
65°F
18°C
68°F
20°C
68°F
20°C
70°F
21°C
70°F
21°C
71°F
22°C
67°F
20°C
63°F
17°C
60°F
16°C
65°F
19°C
65°F
19°C
65°F
18°C
65°F
18°C
64°F
18°C
64°F
18°C
62°F
17°C
58°F
14°C
52°F
11°C
49°F
10°C
48°F
9°C
47°F
9°C
48°F
9°C
48°F
9°C
48°F
9°C
51°F
10°C
48°F
9°C
48°F
9°C
47°F
8°C
45°F
7°C
45°F
7°C
44°F
6°C
42°F
6°C
38°F
3°C
38°F
3°C
37°F
3°C
37°F
3°C
36°F
2°C
36°F
2°C
36°F
2°C
35°F
2°C
34°F
1°C
33°F
1°C
33°F
0°C
33°F
0°C
33°F
0°C
35°F
1°C
37°F
3°C
42°F
6°C
45°F
7°C
47°F
8°C
47°F
8°C
48°F
9°C
48°F
9°C
49°F
10°C
51°F
11°C
50°F
10°C
48°F
9°C
29.74 in
1007 mb
29.74 in
1007 mb
29.71 in
1006 mb
29.68 in
1005 mb
29.68 in
1005 mb
29.68 in
1005 mb
29.71 in
1006 mb
29.71 in
1006 mb
29.74 in
1007 mb
29.77 in
1008 mb
29.77 in
1008 mb
29.8 in
1009 mb
29.83 in
1010 mb
29.83 in
1010 mb
29.83 in
1010 mb
29.8 in
1009 mb
29.8 in
1009 mb
29.77 in
1008 mb
29.77 in
1008 mb
29.77 in
1008 mb
29.77 in
1008 mb
29.8 in
1009 mb
29.83 in
1010 mb
29.85 in
1011 mb
29.85 in
1011 mb
29.88 in
1012 mb
29.88 in
1012 mb
29.88 in
1012 mb
29.88 in
1012 mb
29.88 in
1012 mb
29.88 in
1012 mb
29.85 in
1011 mb
29.85 in
1011 mb
29.85 in
1011 mb
29.88 in
1012 mb
29.91 in
1013 mb
29.94 in
1014 mb
29.94 in
1014 mb
29.94 in
1014 mb
29.91 in
1013 mb
29.91 in
1013 mb
29.88 in
1012 mb
29.88 in
1012 mb
29.85 in
1011 mb
29.85 in
1011 mb
29.85 in
1011 mb
29.88 in
1012 mb
29.88 in
1012 mb
91%90%92%93%95%96%93%89%81%82%81%79%72%61%53%48%43%38%35%34%36%41%44%49%52%54%56%57%58%58%58%56%55%55%55%56%54%51%49%48%47%46%46%46%47%57%61%64%
SWSWSWSWWWWNWNWNNWNWNWNNWNNWNWNWNNWNWNWNWNWNWNNWNNWNNWNNWNNWNWNWNWNWNWNNWNNWNNWNNWNNWNNWNNNNNNNNENNENENEENE
7 mph
11 km/h
8 mph
13 km/h
6 mph
10 km/h
7 mph
12 km/h
9 mph
14 km/h
9 mph
15 km/h
11 mph
18 km/h
13 mph
21 km/h
13 mph
21 km/h
11 mph
18 km/h
11 mph
17 km/h
11 mph
18 km/h
12 mph
20 km/h
15 mph
24 km/h
16 mph
25 km/h
16 mph
25 km/h
15 mph
24 km/h
15 mph
24 km/h
16 mph
26 km/h
16 mph
26 km/h
15 mph
24 km/h
15 mph
24 km/h
15 mph
24 km/h
13 mph
22 km/h
13 mph
21 km/h
11 mph
18 km/h
10 mph
17 km/h
10 mph
16 km/h
10 mph
16 km/h
10 mph
16 km/h
10 mph
16 km/h
11 mph
17 km/h
11 mph
17 km/h
11 mph
18 km/h
11 mph
17 km/h
10 mph
15 km/h
10 mph
16 km/h
9 mph
15 km/h
7 mph
12 km/h
6 mph
10 km/h
5 mph
8 km/h
4 mph
7 km/h
3 mph
5 km/h
4 mph
6 km/h
2 mph
4 km/h
0 mph
1 km/h
2 mph
3 km/h
1 mph
1 km/h
84%0%75%0%71%0%0%0%0%0%0%0%0%0%0%0%0%0%0%0%0%0%0%0%0%0%0%0%0%0%0%0%0%0%0%0%0%0%0%0%0%0%0%0%0%0%0%0%
6 mi
10 km
6 mi
10 km
6 mi
10 km
6 mi
10 km
6 mi
9 km
6 mi
10 km
6 mi
10 km
6 mi
10 km
6 mi
10 km
6 mi
10 km
6 mi
10 km
6 mi
10 km
6 mi
10 km
6 mi
10 km
6 mi
10 km
6 mi
10 km
6 mi
10 km
6 mi
10 km
6 mi
10 km
6 mi
10 km
6 mi
10 km
6 mi
10 km
6 mi
10 km
6 mi
10 km
6 mi
10 km
6 mi
10 km
6 mi
10 km
6 mi
10 km
6 mi
10 km
6 mi
10 km
6 mi
10 km
6 mi
10 km
6 mi
10 km
6 mi
10 km
6 mi
10 km
6 mi
10 km
6 mi
10 km
6 mi
10 km
6 mi
10 km
6 mi
10 km
6 mi
10 km
6 mi
10 km
6 mi
10 km
6 mi
10 km
6 mi
10 km
6 mi
10 km
6 mi
10 km
6 mi
10 km

Day/Time
Weather
Condition
Temperature
Dew Point
Pressure
Humidity
Wind Direction
Wind Speed
Prob Precip %
Visibility
Prob Precip % = Probability of Precipitation.